Location: Plymouth
(43.7570°N, 71.6890°W)
Time: 00:08:35
(UTC-04:00)

Daily predictions for brighter satellites

Satellite Brightness Start Highest point End
(mag) Time Altitude Azimuth Time Altitude Azimuth Time Altitude Azimuth
Cosmos 2058 2.9 00:05:54 65° ESE 00:06:02 65° E 00:10:09 10° NNE
Lacrosse 5 4.1 00:03:31 10° W 00:07:46 26° NNW 00:12:01 10° NE
Nadezhda 1 Rocket 4.3 00:05:57 40° SSE 00:08:02 57° E 00:14:17 10° NNE
CZ-4 R/B 4.0 00:08:48 10° N 00:13:36 68° WNW 00:14:51 47° SW
Cosmos 1241 Rocket 4.3 00:17:26 44° SSW 00:19:30 75° ESE 00:25:45 10° NE
ALOS 2 2.4 00:20:27 70° SSW 00:20:54 80° W 00:25:18 10° NNW
Cosmos 1500 Rocket 3.9 00:20:48 49° ESE 00:20:58 49° E 00:25:10 10° NNE
Cosmos 2278 Rocket 3.5 00:20:26 13° WSW 00:24:59 35° NW 00:30:12 10° N
NOSS 3-4 (A) 4.1 00:20:16 14° WSW 00:25:30 55° NW 00:31:53 10° NNE
NOSS 3-4 (C) 4.0 00:20:26 15° WSW 00:25:35 56° NW 00:31:59 10° NNE
NOSS 2-2 (E) 4.2 00:24:27 34° W 00:25:48 50° NW 00:30:16 10° NNE
Cosmos 407 Rocket 3.5 00:25:31 55° SSE 00:26:16 62° ESE 00:31:23 10° NNE
Cosmos 2074 Rocket 4.1 00:23:05 10° NNW 00:29:17 69° W 00:31:22 43° SSW
Cosmos 1809 Rocket 4.4 00:26:06 10° N 00:32:13 83° W 00:34:05 47° S
Cosmos 1441 Rocket 3.5 00:30:32 10° NNW 00:34:02 55° WNW 00:34:02 55° WNW
Cosmos 1190 Rocket 3.9 00:35:11 58° S 00:36:12 78° ESE 00:41:26 10° NNE
CENTAUR R/B 3.1 00:29:31 10° NW 00:37:30 75° WSW 00:41:25 36° SSE
ADEOS Rocket 3.1 00:34:49 10° N 00:40:38 73° WNW 00:43:06 39° SSW
Cosmos 1408 Rocket 4.5 00:40:10 35° WSW 00:41:04 39° WNW 00:45:16 10° N
Cosmos 405 Rocket 3.0 00:38:04 10° NNW 00:41:21 56° WNW 00:41:21 56° WNW
USA 234 3.2 00:37:23 10° NE 00:43:54 65° SE 00:46:17 40° SSW
Cosmos 1515 Rocket 3.6 00:43:16 10° NNW 00:47:38 63° W 00:47:56 61° WSW
Cosmos 1151 Rocket 3.1 00:44:44 10° NNW 00:48:58 59° W 00:49:07 59° WSW
SL-27 R/B 4.3 00:47:21 10° NW 00:49:37 23° W 00:49:37 23° W
RESURS DK-1 3.2 00:50:15 39° W 00:51:05 44° WNW 00:55:05 10° NNE
Cosmos 1869 3.3 00:47:36 10° NNW 00:51:31 73° W 00:51:31 73° W
H-2A R/B 2.2 00:53:56 54° W 00:53:56 54° W 00:57:54 10° NNW
Cosmos 371 Rocket 3.3 00:49:12 10° NNW 00:54:05 79° ENE 00:54:59 58° SE
SL-24 R/B 4.2 00:50:35 10° NNE 00:54:58 71° ESE 00:55:35 61° SSE
Cosmos 2369 Rocket 2.9 00:55:50 36° SE 00:56:49 38° ESE 01:02:00 10° NE
Meteor 2-10 Rocket 3.7 00:59:04 10° NNW 01:04:05 59° W 01:05:02 50° SW
Orbus 7S? 4.4 01:04:39 27° NNW 01:04:39 27° NNW 01:07:12 10° NNE
Mayak 0.3 01:03:11 10° NNW 01:06:40 26° WNW 01:07:42 23° W
Cosmos 1023 Rocket 4.3 01:06:51 60° S 01:07:46 80° ESE 01:12:52 10° NNE
Cosmos 2228 Rocket 3.8 01:04:10 10° NNW 01:08:21 39° W 01:08:37 39° W
Cosmos 2154 Rocket 4.2 01:04:32 10° NNW 01:10:47 60° W 01:12:48 42° SSW
Cosmos 2082 Rocket 3.4 01:06:43 10° NW 01:11:23 26° WSW 01:12:02 26° WSW
deb Chang Zheng 4 3.7 01:07:32 10° N 01:11:56 67° WNW 01:12:31 59° WSW
Cosmos 2098 Rocket 4.4 01:04:58 10° N 01:12:31 70° E 01:15:41 35° SSE
Cosmos 2181 Rocket 4.0 01:13:16 44° S 01:15:26 78° E 01:21:43 10° N
ATLAS 5 CENTAUR R/B 3.5 01:14:01 13° W 01:17:23 29° NW 01:21:47 10° NNE
Cosmos 1833 Rocket 4.3 01:16:41 10° NW 01:20:31 19° W 01:20:59 19° WSW
Cosmos 2341 Rocket 4.0 01:15:04 10° NNW 01:21:25 74° W 01:23:35 44° SSW
Cosmos 332 Rocket 3.9 01:17:09 10° NNW 01:21:58 55° WSW 01:22:28 52° SW
Meteor 2-8 Rocket 4.4 01:25:02 45° SSW 01:27:06 82° W 01:33:17 10° N
In-Cosmos 22 Rocket 4.0 01:30:42 51° SSW 01:32:04 78° W 01:37:28 10° N
Cosmos 2263 4.5 01:31:34 42° SSE 01:32:59 53° ESE 01:38:26 10° NNE
Cosmos 1825 3.9 01:32:50 21° ESE 01:33:21 22° E 01:36:20 10° NE
Cosmos 2218 Rocket 4.0 01:29:45 10° N 01:35:56 81° E 01:38:28 38° SSE
SL-8 Rocket 3.9 01:35:00 10° N 01:41:17 79° W 01:43:39 41° S
Cosmos 1805 Rocket 3.6 01:40:58 55° WSW 01:41:32 62° W 01:45:55 10° N
Cosmos 405 4.2 01:41:36 31° E 01:41:42 31° E 01:44:53 10° NNE
Cosmos 864 Rocket 4.5 01:37:30 10° N 01:43:49 80° E 01:46:33 36° SSE
Cosmos 1933 3.1 01:40:31 10° N 01:44:32 78° W 01:44:46 74° SW
Cosmos 1408 3.7 01:44:25 34° ESE 01:44:46 35° E 01:48:11 10° NNE
Cosmos 1741 Rocket 4.0 01:44:36 48° S 01:46:02 72° ESE 01:51:19 10° NNE
COSMOS 2487 3.9 01:43:53 10° NW 01:46:11 28° WNW 01:46:11 28° WNW
CZ-4B R/B 2.4 01:46:58 34° E 01:47:10 35° ENE 01:50:02 10° N
Cosmos 1943 Rocket 2.1 01:45:58 46° S 01:47:36 75° ESE 01:53:11 10° NNE
Sich 1 3.0 01:49:47 60° SW 01:50:26 73° W 01:54:51 10° N
Meteor 1-26 Rocket 4.3 01:45:08 10° N 01:50:54 78° E 01:53:18 36° SSE
MOS 1 Rocket 3.6 01:46:11 10° N 01:51:08 59° WNW 01:52:22 44° SW
Cosmos 2208 Rocket 4.3 01:47:42 10° NNW 01:53:04 66° ENE 01:56:02 27° SE
Cosmos 1862 Rocket 4.4 01:48:50 10° N 01:53:11 47° ENE 01:54:57 30° SE
BREEZE-M TANK 2.6 01:55:45 53° SSE 01:55:45 53° SSE 01:58:21 10° E
Cosmos 1892 3.0 01:56:16 51° W 01:56:25 51° W 02:00:07 10° N
Cosmos 1140 Rocket 4.4 01:55:35 28° WSW 01:57:30 39° WNW 02:02:19 10° N
Timation 2 Rocket 4.3 01:51:23 10° NW 01:57:56 58° WSW 02:00:37 36° S
CZ-2D R/B 3.7 01:53:35 10° NE 01:57:57 25° E 02:00:48 17° SE
Cosmos 468 Rocket 4.2 01:56:38 10° NNW 02:01:45 64° ENE 02:04:42 25° SE
CZ-4C R/B 3.2 02:03:26 59° W 02:03:26 59° W 02:07:01 10° NNW
Cosmos 1782 4.0 02:00:04 10° N 02:03:45 36° ENE 02:05:27 24° SE
Cosmos 1707 Rocket 3.9 02:00:21 10° NNW 02:04:34 45° W 02:05:04 43° WSW
SL-16 R/B 3.3 02:01:27 11° SE 02:07:00 48° ENE 02:12:53 10° N
Cosmos 2366 rocket 4.0 02:01:28 10° NNW 02:07:32 65° W 02:09:59 37° SSW
Cosmos 1633 Rocket 3.2 02:08:40 49° SW 02:09:35 62° W 02:14:00 10° N
Cosmos 1470 Rocket 3.6 02:14:17 46° S 02:15:35 79° E 02:20:04 10° N
Meteor 2-15 4.4 02:14:33 36° SSW 02:17:15 84° W 02:23:21 10° N
H-2A R/B 4.0 02:14:05 10° NE 02:17:30 26° E 02:19:01 21° SE
Nadezhda 3 Rocket 4.2 02:15:53 29° S 02:19:17 71° E 02:25:37 10° NNE
CRYOSAT 2 4.4 02:22:03 41° SSW 02:23:41 68° W 02:28:35 10° N
Cosmos 304 Rocket 4.3 02:20:23 10° NW 02:24:48 38° WSW 02:25:32 36° SW
USA 234 4.1 02:20:33 10° NE 02:26:47 48° NNW 02:33:00 10° W
Landsat 5 3.5 02:26:59 47° WSW 02:27:21 49° W 02:31:07 10° NNW
Meteor 2-3 Rocket 3.9 02:25:50 34° SW 02:28:17 63° WNW 02:34:04 10° N
SL-8 R/B 4.4 02:23:56 10° WNW 02:28:41 55° NNE 02:33:26 10° E
Cosmos 1570 Rocket 4.2 02:23:56 10° NNW 02:29:04 54° WSW 02:30:55 36° SSW
Resurs 1-4 Rocket 2.7 02:25:19 10° NNE 02:30:30 50° E 02:33:30 24° SSE
Cosmos 1933 Rocket 3.5 02:36:28 41° SSW 02:37:54 73° W 02:42:16 10° N
Cosmos 1862 4.3 02:37:05 23° SE 02:38:59 39° E 02:42:43 10° NNE
Cosmos 2369 Rocket 3.3 02:37:37 20° WSW 02:40:52 35° NW 02:46:01 10° N
Cosmos 1689 Rocket 2.8 02:41:36 41° W 02:41:36 41° W 02:44:16 10° NNW
COSMOS 2455 3.5 02:38:55 10° NNW 02:44:53 58° NE 02:50:47 10° SE
BREEZE-M DEB (TANK) 3.0 02:42:16 20° WSW 02:46:44 82° SSE 02:49:19 10° ENE
GP-B 3.4 02:47:16 10° N 02:51:37 54° W 02:53:22 33° SW
Lacrosse 4 Rocket 1.5 02:52:46 33° SSW 02:54:40 77° ESE 02:59:08 10° NNE
Cosmos 2242 Rocket 4.4 02:52:42 10° NNW 02:56:46 34° W 02:58:04 28° SW
CBERS-1 4.0 02:53:30 10° N 02:58:39 77° WNW 03:01:34 26° SSW
Cosmos 292 Rocket 3.7 02:54:22 10° NNW 02:59:11 82° WSW 03:03:10 15° SSE
ARIANE 5 R/B 3.1 02:54:58 10° NNE 02:59:52 51° E 03:03:30 17° S
SL-08 R/B 3.3 03:00:50 23° S 03:03:43 66° WSW 03:08:24 10° NNW
Cosmos 2221 Rocket 4.2 03:00:19 10° N 03:04:40 54° E 03:09:02 10° SSE
Cosmos 1606 3.7 03:01:27 10° NNW 03:04:47 29° W 03:05:33 27° WSW
Cosmos 1763 Rocket 3.6 03:01:21 10° NNW 03:06:17 53° WSW 03:09:28 21° S
Cosmos 1821 Rocket 4.1 03:01:53 10° NNW 03:08:05 63° W 03:12:45 19° S
Cosmos 1825 3.6 03:07:41 21° W 03:08:48 24° WNW 03:11:57 10° NNW
ATLAS CENTAUR R/B 3.7 03:10:32 10° SE 03:12:21 13° ESE 03:14:14 10° E
Cosmos 1869 Rocket 3.5 03:10:45 23° S 03:13:26 85° E 03:17:50 10° N
MOZ.5/SAFIR/RUBIN 5/SL-8 3.7 03:13:25 16° S 03:17:05 72° WSW 03:21:46 10° NNW
Cosmos 1656 Rocket 4.1 03:14:34 21° SW 03:18:12 51° WNW 03:23:42 10° NNE
IRS-1C 4.2 03:13:56 10° N 03:19:15 69° WNW 03:22:56 20° SSW
CZ-4B R/B 3.7 03:20:24 10° W 03:20:24 10° W 03:20:40 10° WNW
Cosmos 1814 Rocket 4.4 03:17:07 10° NNW 03:22:08 44° WSW 03:25:46 17° SSW
ADEOS 4.5 03:17:32 10° NNE 03:22:33 45° E 03:27:32 10° S
BREEZE-M DEB (TANK) 2.1 03:21:19 10° WNW 03:23:38 64° SSW 03:28:32 10° SE
Cosmos 1867 3.6 03:20:08 21° SW 03:23:47 76° NW 03:29:17 10° NNE
Cosmos 540 Rocket 3.4 03:20:33 10° NNW 03:25:43 89° WSW 03:30:50 10° SSE
NPP 4.4 03:22:36 10° N 03:27:36 40° WNW 03:31:13 18° SW
BREEZE-M R/B 4.5 03:24:33 15° SSW 03:28:25 24° SSE 03:31:28 10° E
Cosmos 1703 Rocket 4.1 03:27:43 10° NNW 03:31:51 40° W 03:34:34 19° SSW
Cosmos 1943 Rocket 4.0 03:27:59 10° W 03:31:59 20° NW 03:36:01 10° N
Cosmos 1437 Rocket 2.9 03:29:54 20° SSW 03:32:35 67° W 03:36:43 10° N
Spot 4 Rocket 4.0 03:29:50 10° N 03:34:59 75° WNW 03:39:11 16° SSW
Cosmos 841 Rocket 3.9 03:30:46 10° NNW 03:35:41 43° WSW 03:40:09 12° S
Cosmos 1818 4.3 03:31:18 10° NW 03:36:06 32° WSW 03:40:38 11° S
Lacrosse 5 4.0 03:32:14 10° NW 03:36:39 29° NNE 03:41:04 10° E
CZ-2D R/B 2.7 03:33:11 10° N 03:38:11 44° WNW 03:42:08 16° SW
Helios 1A Rocket 3.4 03:35:31 10° NNE 03:39:30 57° E 03:43:25 10° S
Cosmos 1812 3.3 03:36:47 10° N 03:40:38 60° E 03:44:27 10° SSE
ADEOS II 2.8 03:37:13 10° NNE 03:42:21 51° E 03:47:28 10° S
Cosmos 1184 Rocket 3.0 03:40:16 10° NNW 03:43:26 48° W 03:45:50 16° SSW
Okean 1-7 3.6 03:40:32 10° NNW 03:44:39 40° W 03:47:58 15° SSW
IRS-1D 4.1 03:41:18 10° N 03:46:11 44° WNW 03:50:08 15° SW
BREEZE-M DEB (TANK) 4.3 03:45:14 10° WNW 03:48:43 51° NNE 03:55:25 10° E
Meteor 1-27 Rocket 4.1 03:43:15 10° NNW 03:48:49 49° W 03:54:26 10° SSW
SL-16 R/B 3.4 03:46:32 14° SSW 03:50:48 29° W 03:56:06 10° NW
Cosmos 2219 3.2 03:45:40 10° NNW 03:51:16 64° WSW 03:56:48 10° S
H-2A R/B 3.8 03:49:38 10° NNW 03:52:57 25° WNW 03:55:37 13° WSW
Okean 3 4.5 03:50:37 10° N 03:54:41 48° ENE 03:58:45 10° SSE
PSLV R/B 3.4 03:52:36 13° W 03:55:01 39° S 03:57:48 10° ESE
Meteor 1-4 Rocket 3.1 03:56:02 15° SW 03:58:50 44° WNW 04:02:23 10° N
Cosmos 1733 Rocket 3.1 03:58:07 10° S 04:02:26 84° E 04:06:47 10° N
Cosmos 1354 Rocket 4.1 03:58:32 12° SSW 04:03:25 70° WNW 04:08:39 10° NNE
Cosmos 1605 Rocket 4.3 03:58:20 10° NNW 04:04:08 47° W 04:09:57 10° SSW
Genesis I 3.2 04:02:34 10° NW 04:06:39 69° WSW 04:10:40 10° SSE
USA 229 DEB 3.9 04:00:19 10° NW 04:07:25 63° WSW 04:14:41 10° SSE
USA 229 3.9 04:00:25 10° NW 04:07:31 63° WSW 04:14:48 10° SSE
NOSS 3-1 (A) 4.5 04:00:42 10° NW 04:08:15 71° NE 04:16:43 10° SE
Cosmos 44 Rocket 3.6 04:03:29 10° SSW 04:08:16 67° ESE 04:13:15 10° NE
Resurs 1-4 Rocket 3.5 04:05:49 10° N 04:10:00 24° WNW 04:14:11 10° WSW
SL-8 R/B 3.7 04:06:35 10° WNW 04:11:21 61° SSW 04:16:05 10° SE
Cosmos 1674 Rocket 3.6 04:08:03 10° N 04:12:24 81° E 04:16:42 10° S
Cosmos 2100 Rocket 4.1 04:09:02 10° N 04:15:14 89° E 04:21:28 10° S
SeaSat 1 3.9 04:12:29 10° SE 04:17:07 43° NE 04:21:46 10° NNW
Okean 1 4.1 04:13:17 10° N 04:17:12 55° E 04:21:05 10° SSE
Cosmos 1459 Rocket 4.2 04:11:22 10° N 04:17:47 87° E 04:24:09 10° S
Cosmos 1908 Rocket 4.5 04:13:58 10° SSE 04:18:16 51° E 04:22:35 10° NNE
Cosmos 2297 Rocket 2.3 04:14:03 10° NNW 04:19:45 88° ENE 04:25:23 10° SSE
Cosmos 2278 4.3 04:16:25 10° S 04:21:56 58° ESE 04:27:29 10° NNE
Cosmos 44 3.5 04:17:44 10° SW 04:22:21 60° NW 04:27:19 10° NNE
BREEZE M DEB (TANK) 3.1 04:20:14 10° WNW 04:23:07 32° N 04:25:02 10° ENE
Cosmos 389 Rocket 2.9 04:22:14 10° SSW 04:25:45 49° WNW 04:29:18 10° N
Cosmos 2227 Rocket 2.2 04:22:16 10° NNW 04:27:57 74° WSW 04:33:36 10° SSE
COSMOS 2455 3.8 04:25:35 10° NW 04:30:23 25° WSW 04:35:10 10° SSW
ATLAS CENTAUR Rocket 3.9 04:26:55 10° SSW 04:30:24 20° SSE 04:37:46 10° ESE
